Temperature
22 23 25 25 26 25 24 22 22 22 22 22 22 22 22 23 23 23 23 23 23 23 23 23 22 22 22 22 22 21 21 20 20 20 20 20 20 20 19 19 19 19 19 18
22 24 25 25 26 26 25 24 23 23 23 23 22 23 22 23 23 22 23 23 22 22 22 23 22 22 22 22 21 21 21 21 21 20 20 20 19 19 19 19 19 19 19 18
20 22 24 24 24 26 25 25 24 23 22 22 21 22 22 22 22 22 22 23 22 22 23 22 22 22 22 21 21 21 21 21 20 20 20 20 19 19 19 19 19 18 18 18
18 21 22 22 23 25 25 24 23 23 22 22 22 23 23 23 23 23 23 23 23 22 22 22 22 22 22 21 21 21 21 20 20 20 19 19 19 19 19 18 18 18 18 18
17 19 21 22 24 25 24 23 23 23 22 22 22 22 21 22 23 23 23 23 23 23 22 22 22 22 21 21 21 20 20 20 20 20 20 19 19 19 18 18 18 18 18 18
17 20 20 21 23 25 23 21 22 22 22 22 22 20 20 22 22 22 22 22 22 22 22 22 21 21 21 21 21 20 20 20 20 20 19 19 19 19 18 18 18 18 17 17
17 18 19 21 23 23 22 21 22 22 22 22 21 21 22 22 22 22 22 22 22 21 21 21 21 21 21 20 20 20 20 20 19 19 19 19 18 18 18 18 17 17 17 17
16 17 19 20 21 21 20 21 21 21 22 22 22 22 22 22 22 22 21 21 21 21 21 20 20 20 20 20 20 20 19 19 19 19 18 18 18 18 18 17 17 17 17 17
16 17 18 20 20 21 21 21 21 21 21 21 21 20 21 21 21 21 21 21 21 20 20 20 20 20 20 20 19 19 19 19 18 18 18 18 17 17 17 17 17 17 16 16
16 17 18 19 20 21 21 20 21 21 21 20 20 20 20 20 20 20 20 20 20 20 20 19 19 19 19 19 18 18 18 18 18 18 18 17 17 17 17 17 16 16 16 16
15 15 17 18 19 19 20 20 20 20 20 20 20 19 19 19 20 20 19 19 19 19 19 19 18 18 18 18 18 18 18 18 17 17 17 17 17 16 16 16 16 16 16 16
14 15 15 16 18 19 19 19 19 19 19 19 19 19 19 19 19 19 19 19 19 19 18 18 18 18 18 18 18 18 17 17 17 16 16 16 16 16 16 16 16 16 15 15
16 17 17 17 17 18 18 18 19 19 19 19 19 18 19 18 18 18 18 18 18 18 18 18 17 17 17 17 17 17 17 16 16 16 16 16 16 16 15 15 15 15 15 15
16 16 16 17 17 17 18 18 18 18 18 18 18 18 18 18 18 18 17 17 17 17 17 17 17 17 16 16 16 16 16 16 16 16 16 16 15 15 15 15 15 15 15 15
16 16 16 16 17 17 17 17 17 17 17 17 17 17 17 17 17 17 17 17 17 17 16 16 16 16 16 16 16 16 16 16 16 15 15 15 15 15 15 14 14 14 14 14
15 15 15 16 16 16 16 16 16 16 17 17 17 17 17 17 17 16 16 16 16 16 16 16 16 16 16 16 16 16 16 15 15 15 15 15 15 14 14 14 14 14 14 14
15 14 14 15 15 15 16 16 16 16 16 16 16 16 16 16 16 16 16 16 16 16 16 15 15 15 15 15 15 15 15 15 15 15 15 15 15 14 14 14 14 14 14 14
14 14 14 14 15 15 15 15 16 16 16 16 16 16 16 16 16 16 15 15 15 15 15 15 15 15 15 15 15 15 15 15 15 15 14 14 14 14 14 14 14 14 14 14
14 14 14 14 14 15 15 15 15 15 15 15 15 15 15 15 15 15 15 15 15 15 15 15 15 15 15 15 15 15 15 15 14 14 14 14 14 14 14 14 14 14 14 14
14 14 14 14 14 14 14 14 15 14 15 15 15 14 14 14 14 14 14 14 14 14 14 14 14 14 14 14 14 14 14 14 14 14 14 14 14 14 14 14 14 13 13 13
14 14 14 14 14 14 14 14 14 14 14 14 14 14 14 14 14 14 14 14 14 14 14 14 14 14 14 14 14 14 14 14 14 14 14 14 14 14 13 13 13 13 13 13
13 13 13 14 14 14 14 14 14 14 13 14 14 14 14 14 14 14 14 14 14 14 13 13 14 14 14 14 14 14 14 14 14 14 14 13 13 13 13 13 13 13 13 12
13 13 13 13 13 13 13 13 13 13 13 13 13 13 13 13 13 13 13 13 13 13 13 13 13 13 13 13 13 13 13 13 13 13 13 13 13 13 13 13 12 12 12 12
13 13 13 13 13 13 13 13 13 13 13 13 13 13 13 13 13 13 13 13 13 13 13 13 13 13 13 13 13 13 13 13 13 13 13 13 13 12 12 12 12 12 12 12
12 13 13 13 13 13 13 13 13 13 13 13 13 13 13 13 13 13 13 13 13 13 13 13 13 13 13 13 13 13 13 13 13 12 12 12 12 12 12 12 12 11 11 11
12 12 12 12 12 12 12 12 12 12 12 12 12 12 12 12 13 13 13 13 12 12 12 12 12 13 13 13 13 12 12 12 12 12 12 12 12 12 12 11 11 11 11 10
12 12 12 12 12 12 13 12 12 12 12 12 12 12 12 12 12 12 12 12 12 12 12 12 12 12 12 12 12 12 12 12 12 12 12 12 11 11 11 11 11 10 10 10
Wind_Speed
5 5 2 3 4 3 4 7 8 8 8 9 9 9 7 6 6 7 7 7 7 8 8 8 8 8 9 9 9 10 9 9 8 6 5 5 5 5 5 5 5 5 4 3
2 1 1 2 4 4 5 4 6 7 5 6 8 6 6 8 9 7 7 7 7 7 8 8 9 9 8 9 9 9 9 9 8 7 7 6 6 5 5 4 4 4 4 4
2 3 3 4 5 4 3 4 8 7 7 6 7 8 9 9 9 8 7 6 7 7 8 9 9 10 10 9 9 9 9 8 8 7 7 7 7 6 6 5 4 4 4 4
1 2 4 8 5 2 3 2 3 5 8 12 11 8 6 8 9 7 7 6 5 6 6 7 7 8 9 9 9 9 8 8 7 7 7 6 6 6 5 4 4 4 4 4
3 3 4 6 5 0 3 1 1 6 8 8 8 6 2 3 7 9 8 6 5 6 6 6 7 8 9 8 8 8 8 8 7 8 7 6 6 6 5 5 4 4 3 4
4 4 5 6 6 3 5 1 2 5 9 10 8 5 4 5 6 7 6 5 5 5 6 6 6 7 9 8 7 7 8 8 7 7 7 7 7 6 4 4 4 4 4 4
4 4 5 6 6 4 4 5 2 3 6 8 6 7 7 7 6 7 6 6 7 7 6 5 6 8 8 7 6 6 6 6 6 6 6 6 5 4 4 4 3 3 3 3
4 4 6 6 4 1 4 2 2 3 4 5 5 5 7 8 7 7 7 6 7 7 5 4 6 8 7 6 5 5 6 5 5 5 5 5 5 5 4 4 4 3 2 2
6 6 5 2 1 1 3 4 3 3 4 7 6 5 6 6 7 7 7 6 6 7 5 4 4 6 7 4 5 6 6 5 4 4 3 4 5 5 4 4 4 3 3 3
1 1 2 3 2 3 3 4 4 5 6 6 6 5 6 6 6 6 6 6 6 7 6 4 3 4 5 5 5 6 6 5 4 4 4 3 3 4 4 4 4 4 4 4
1 2 4 5 3 3 4 4 5 5 5 5 6 5 5 5 5 5 5 5 5 6 6 5 4 4 4 5 6 6 5 4 4 4 4 3 3 3 4 4 6 6 5 5
5 5 2 4 5 2 2 2 3 5 4 3 4 4 5 5 4 5 6 5 6 5 5 5 5 4 3 4 5 6 5 4 3 3 3 3 3 1 2 1 3 6 7 6
6 4 3 3 4 2 1 2 2 3 4 2 2 4 5 5 4 5 5 6 5 5 5 4 5 4 3 4 5 6 5 4 3 3 3 3 3 3 1 2 2 1 4 5
4 2 2 3 2 3 1 2 3 3 3 3 2 3 5 5 5 6 5 4 5 5 5 4 3 3 3 3 4 4 5 5 4 3 3 3 3 3 3 3 1 2 2 3
5 4 5 3 2 3 2 3 4 3 2 2 3 4 5 5 5 5 4 4 5 5 4 3 3 2 2 3 4 4 3 3 3 3 3 3 3 3 2 3 2 2 1 1
4 2 3 3 3 3 3 4 4 3 3 3 3 4 4 5 4 4 3 4 5 4 3 3 2 2 2 3 3 2 2 3 3 3 3 3 2 2 2 2 2 2 3 3
4 4 3 3 3 3 3 4 5 5 4 5 4 5 4 5 5 4 2 3 4 4 4 4 3 3 3 4 4 3 2 3 4 3 3 3 3 3 3 3 3 3 3 4
6 6 6 5 4 3 2 3 4 4 4 5 5 5 4 4 4 4 3 2 2 1 1 3 3 3 3 4 3 2 2 2 2 2 2 2 2 2 3 3 3 3 2 2
2 4 5 5 5 5 4 4 3 3 4 5 6 5 4 4 4 3 3 3 2 1 2 2 3 3 2 3 3 2 2 2 2 2 2 2 2 2 2 2 3 3 2 2
3 4 5 4 4 5 5 4 5 4 3 5 5 5 4 3 4 4 3 3 3 3 3 2 2 2 2 2 3 2 2 2 2 2 2 2 2 2 2 2 2 2 2 2
4 5 5 4 3 4 4 5 5 4 4 5 5 5 4 4 4 4 4 2 3 2 2 2 1 2 2 2 2 2 2 2 3 3 3 2 2 2 2 2 2 2 2 2
4 5 5 4 4 3 3 4 4 4 3 4 4 4 4 3 3 3 3 3 3 3 2 1 1 1 2 2 2 2 1 2 2 2 2 2 2 2 2 2 3 3 3 3
3 4 4 4 4 3 3 3 4 4 4 3 4 4 3 3 3 4 2 2 2 4 3 2 2 2 3 2 2 2 1 1 2 2 2 2 2 3 3 3 3 3 3 2
3 3 3 3 4 4 3 2 3 3 3 2 2 3 3 2 1 2 3 3 4 4 3 3 4 3 2 2 2 2 1 1 1 2 1 2 2 2 2 2 2 2 2 2
2 2 3 3 3 2 2 3 3 2 2 1 1 1 2 3 4 3 3 3 5 4 3 3 5 4 3 2 2 2 2 2 2 2 2 2 2 2 2 2 2 2 2 2
2 2 2 2 2 2 2 2 2 2 2 2 1 1 2 2 3 3 2 3 4 4 3 2 2 3 2 2 2 2 2 2 2 2 2 2 2 2 2 2 2 1 1 1
2 2 2 1 1 1 2 2 3 2 2 2 2 2 2 2 2 2 2 3 3 2 2 2 2 2 2 2 1 1 1 1 1 1 1 2 2 2 2 2 2 2 1 1
Wind_Direction
216 216 211 245 246 202 175 178 175 201 190 199 187 175 167 151 140 134 144 152 162 167 167 166 167 168 170 171 170 171 168 171 179 182 179 178 175 173 171 167 174 172 170 180
324 303 15 324 275 217 195 165 158 161 206 199 166 152 148 146 140 142 154 162 165 169 166 169 168 169 167 167 167 161 166 177 181 176 173 177 181 173 167 171 172 166 174 185
270 304 28 288 253 214 192 172 159 180 206 161 149 162 171 161 150 154 159 164 171 174 173 174 174 169 168 168 163 163 169 176 181 179 181 187 185 174 174 178 175 175 184 179
141 63 214 241 255 188 143 160 156 166 172 167 167 171 166 153 150 156 160 156 172 175 173 172 166 164 165 162 162 166 170 177 178 177 181 180 171 172 178 178 180 187 192 187
126 174 258 293 304 236 135 295 200 151 162 154 131 99 85 154 153 160 162 161 163 163 150 146 153 157 153 157 163 168 175 179 180 173 171 172 173 177 179 176 185 189 183 184
141 162 217 247 290 293 104 328 316 146 158 156 137 142 203 178 153 143 138 138 134 125 119 131 147 144 145 153 160 175 180 180 178 172 170 175 180 180 174 171 185 183 187 190
165 196 248 264 308 29 124 223 274 156 160 160 167 180 171 146 137 131 126 124 120 117 119 133 139 137 139 148 165 174 167 165 165 167 174 175 173 173 165 168 173 182 183 190
156 180 241 297 12 97 212 194 115 108 113 113 116 119 130 132 128 123 119 116 117 117 116 123 132 136 139 155 168 150 143 145 156 164 170 166 163 170 168 167 172 182 174 189
184 205 239 297 159 208 138 109 90 97 105 111 110 114 124 125 124 124 124 123 121 122 116 112 124 136 143 160 145 137 135 144 149 150 152 153 162 173 175 178 185 196 188 198
76 300 311 341 24 58 88 103 100 107 108 108 112 114 117 126 126 128 127 130 125 124 125 128 128 128 142 145 139 132 140 149 149 145 146 149 157 169 180 191 192 193 195 204
301 294 354 349 3 42 49 67 87 88 91 107 116 114 121 127 124 123 122 123 125 131 139 144 136 122 132 142 139 136 145 154 155 156 156 155 155 173 190 206 201 196 204 198
232 241 219 271 301 336 51 73 104 97 77 83 117 125 121 124 127 125 123 120 123 127 134 136 131 127 132 143 146 143 149 158 160 153 151 153 148 104 14 252 220 208 203 199
228 242 227 260 307 311 110 118 106 109 111 108 105 124 128 129 129 117 114 118 128 136 134 135 136 139 149 150 147 150 159 165 161 158 160 166 167 164 186 337 358 246 220 212
224 213 250 268 278 298 262 143 112 90 91 112 118 125 126 123 121 115 119 127 126 120 122 133 142 163 175 158 151 159 162 166 162 167 173 181 185 186 185 189 237 290 282 237
239 217 212 232 270 276 234 131 111 117 127 114 118 125 129 132 135 135 136 126 118 113 118 129 149 196 187 153 151 158 161 167 168 165 172 179 177 177 185 195 206 224 248 280
237 217 201 201 221 227 190 151 144 163 154 137 124 125 129 134 128 118 114 121 124 136 148 148 183 213 184 157 150 158 170 174 164 162 169 176 177 176 187 200 206 207 211 213
208 214 200 191 202 215 190 172 171 167 151 144 145 136 127 123 115 113 116 124 137 155 165 171 200 200 177 165 166 179 180 182 172 166 182 189 188 190 196 204 213 219 229 216
218 205 190 179 178 169 166 153 151 160 160 157 144 132 136 145 150 166 175 145 114 110 177 193 191 181 181 180 175 172 176 175 175 188 194 189 190 197 197 207 221 220 235 226
189 175 173 179 177 168 161 143 138 145 142 136 136 145 157 162 165 169 157 134 136 188 254 227 181 169 186 204 181 164 172 177 175 179 177 176 175 186 189 199 213 210 203 200
156 133 131 141 146 145 141 134 127 129 140 139 140 148 162 179 169 155 145 162 195 208 215 205 186 188 193 191 175 170 173 188 182 173 164 163 171 189 194 196 207 206 205 207
132 124 125 128 123 119 129 133 131 143 159 151 153 163 170 176 169 161 155 184 242 221 178 157 160 190 195 185 175 175 177 185 184 178 174 172 171 183 191 195 206 211 217 222
138 135 135 137 131 120 121 119 119 119 127 133 142 150 149 154 159 158 177 197 201 178 164 156 171 188 176 162 149 153 155 165 181 177 176 176 176 186 206 217 215 215 213 212
138 136 135 134 140 136 119 122 123 126 131 141 148 156 161 173 166 158 183 220 174 164 166 180 194 196 163 140 143 155 166 171 167 172 186 193 199 202 210 221 221 216 213 208
130 131 135 127 114 112 123 135 128 130 132 144 160 160 154 152 162 190 181 180 176 170 180 197 198 190 164 147 153 164 192 210 185 172 182 193 203 211 216 211 207 206 202 196
124 117 120 118 123 148 161 141 118 114 119 135 163 193 194 184 185 196 178 167 171 172 187 198 191 185 179 180 177 184 203 216 207 189 183 191 196 200 202 197 200 206 205 200
124 123 142 162 177 184 172 146 137 144 147 160 203 223 209 194 174 168 170 172 167 168 168 170 168 164 173 181 192 205 211 214 209 201 200 193 187 185 182 180 174 181 191 195
106 125 122 99 101 149 146 146 155 167 167 163 181 216 199 166 146 152 153 152 156 161 154 150 150 150 159 170 177 190 189 186 194 191 178 173 163 163 169 168 165 171 169 168
Height
1471 1467 1465 1466 1465 1465 1473 1480 1489 1487 1484 1479 1476 1476 1478 1480 1482 1484 1485 1489 1491 1493 1495 1498 1500 1503 1506 1509 1512 1515 1517 1519 1521 1523 1524 1525 1526 1528 1529 1529 1530 1531 1532 1532
1471 1463 1463 1465 1462 1462 1465 1469 1474 1476 1477 1468 1471 1474 1476 1478 1480 1482 1484 1487 1490 1493 1494 1496 1498 1501 1504 1507 1509 1512 1515 1517 1518 1520 1521 1522 1524 1525 1526 1527 1528 1529 1529 1530
1483 1469 1467 1476 1464 1460 1462 1462 1466 1475 1472 1467 1471 1473 1474 1475 1477 1479 1482 1484 1487 1490 1492 1494 1496 1499 1502 1504 1507 1509 1512 1513 1515 1517 1518 1519 1521 1522 1523 1524 1526 1526 1527 1528
1485 1479 1489 1473 1454 1453 1456 1459 1458 1459 1460 1462 1465 1468 1471 1472 1474 1477 1479 1482 1485 1487 1490 1492 1494 1497 1500 1502 1504 1506 1508 1510 1512 1513 1515 1515 1517 1519 1520 1522 1523 1524 1525 1526
1489 1489 1481 1465 1454 1453 1458 1463 1456 1458 1459 1462 1465 1469 1473 1473 1474 1476 1478 1481 1483 1485 1487 1490 1493 1495 1497 1499 1501 1503 1505 1508 1509 1511 1512 1513 1515 1516 1517 1519 1520 1521 1522 1523
1485 1487 1488 1470 1453 1448 1453 1468 1457 1455 1458 1462 1465 1473 1473 1472 1473 1475 1478 1480 1482 1484 1486 1488 1491 1493 1495 1497 1498 1500 1502 1505 1507 1508 1510 1511 1512 1514 1515 1516 1517 1518 1519 1519
1482 1484 1476 1458 1451 1449 1469 1470 1458 1456 1456 1458 1461 1463 1466 1469 1471 1473 1476 1479 1481 1483 1485 1487 1489 1491 1493 1495 1496 1498 1500 1503 1504 1506 1507 1509 1510 1511 1512 1513 1514 1514 1515 1516
1481 1484 1478 1454 1452 1458 1461 1455 1456 1457 1457 1458 1460 1462 1465 1467 1469 1471 1474 1477 1479 1481 1484 1486 1488 1489 1491 1492 1494 1497 1498 1500 1502 1503 1505 1506 1507 1509 1510 1510 1511 1512 1512 1513
1469 1470 1459 1454 1454 1455 1455 1455 1456 1457 1457 1458 1461 1463 1464 1466 1468 1471 1473 1476 1478 1480 1482 1485 1486 1488 1489 1491 1493 1494 1496 1497 1499 1501 1502 1503 1504 1505 1506 1507 1508 1509 1509 1510
1463 1460 1456 1455 1454 1454 1455 1455 1456 1457 1459 1460 1461 1463 1465 1466 1468 1470 1472 1474 1476 1479 1480 1482 1485 1487 1488 1490 1491 1492 1493 1495 1496 1497 1498 1500 1501 1502 1503 1504 1505 1505 1506 1506
1462 1459 1457 1456 1455 1455 1454 1455 1456 1458 1459 1461 1461 1462 1464 1466 1467 1468 1471 1473 1476 1477 1479 1481 1482 1484 1486 1488 1489 1490 1491 1492 1493 1494 1496 1497 1498 1499 1500 1501 1502 1502 1502 1503
1462 1459 1459 1458 1457 1456 1455 1455 1455 1457 1459 1461 1461 1462 1463 1465 1467 1468 1470 1472 1474 1476 1478 1479 1481 1482 1484 1486 1487 1487 1489 1490 1491 1492 1493 1494 1495 1496 1497 1498 1499 1499 1500 1500
1455 1455 1456 1455 1455 1455 1455 1455 1456 1456 1457 1459 1461 1462 1463 1464 1466 1467 1469 1470 1472 1474 1476 1478 1480 1481 1483 1484 1485 1486 1487 1488 1489 1490 1491 1492 1492 1493 1494 1495 1496 1496 1496 1497
1451 1453 1453 1453 1453 1454 1455 1454 1454 1455 1457 1458 1459 1461 1462 1463 1465 1466 1468 1470 1472 1473 1475 1477 1479 1480 1481 1482 1483 1484 1485 1486 1487 1488 1489 1490 1490 1491 1491 1492 1492 1492 1493 1493
1448 1449 1450 1450 1451 1453 1453 1453 1453 1454 1456 1457 1458 1459 1461 1462 1464 1465 1467 1469 1471 1472 1474 1476 1478 1479 1480 1481 1482 1483 1483 1484 1485 1486 1487 1488 1488 1489 1489 1490 1490 1490 1490 1490
1444 1445 1446 1447 1448 1450 1451 1451 1452 1453 1454 1455 1457 1458 1460 1462 1463 1465 1466 1468 1469 1471 1472 1474 1476 1478 1479 1480 1481 1481 1482 1483 1484 1485 1486 1486 1486 1487 1487 1488 1488 1487 1487 1487
1440 1440 1442 1443 1444 1446 1447 1449 1450 1451 1453 1454 1456 1458 1460 1462 1463 1464 1466 1467 1468 1470 1471 1473 1474 1476 1477 1479 1479 1480 1481 1481 1482 1484 1484 1485 1485 1485 1485 1486 1485 1485 1485 1485
1435 1436 1438 1440 1442 1443 1445 1447 1448 1450 1451 1452 1454 1456 1458 1460 1461 1463 1464 1466 1467 1468 1469 1471 1472 1474 1475 1476 1477 1478 1479 1480 1481 1482 1482 1482 1483 1483 1483 1483 1483 1483 1482 1482
1430 1432 1434 1437 1440 1442 1443 1444 1446 1448 1449 1451 1452 1455 1456 1458 1460 1462 1463 1464 1465 1466 1468 1469 1470 1472 1473 1474 1476 1476 1477 1478 1479 1480 1480 1480 1480 1481 1481 1480 1480 1480 1479 1479
1430 1431 1432 1436 1439 1440 1441 1442 1444 1446 1448 1449 1451 1453 1454 1456 1458 1460 1461 1461 1462 1464 1466 1467 1468 1469 1470 1472 1473 1474 1475 1476 1477 1477 1478 1478 1478 1478 1478 1477 1477 1477 1476 1475
1430 1431 1433 1435 1437 1438 1440 1441 1443 1445 1447 1448 1450 1451 1453 1455 1456 1458 1458 1459 1461 1462 1464 1465 1466 1467 1468 1470 1471 1472 1473 1474 1474 1475 1475 1475 1475 1475 1474 1474 1474 1473 1473 1473
1430 1431 1433 1435 1436 1437 1439 1441 1442 1444 1446 1447 1448 1450 1451 1452 1454 1455 1456 1457 1459 1461 1462 1463 1464 1466 1467 1468 1469 1470 1471 1471 1472 1472 1472 1472 1472 1471 1471 1471 1470 1470 1470 1469
1430 1431 1433 1434 1436 1437 1438 1440 1442 1443 1444 1445 1446 1448 1449 1450 1452 1453 1454 1456 1458 1459 1460 1462 1463 1464 1465 1465 1466 1467 1468 1468 1468 1469 1469 1469 1469 1469 1468 1468 1468 1467 1466 1465
1430 1431 1433 1434 1436 1436 1437 1439 1441 1442 1443 1444 1445 1447 1448 1449 1450 1451 1453 1455 1456 1457 1458 1460 1461 1462 1463 1463 1464 1464 1465 1465 1466 1466 1467 1466 1466 1466 1465 1464 1464 1463 1462 1461
1430 1431 1433 1434 1435 1436 1437 1438 1439 1440 1441 1443 1444 1445 1446 1447 1448 1450 1451 1453 1454 1455 1456 1457 1458 1459 1460 1461 1461 1462 1463 1463 1463 1463 1463 1463 1463 1462 1461 1461 1460 1459 1458 1457
1430 1431 1433 1434 1435 1436 1436 1437 1438 1439 1440 1441 1442 1444 1445 1446 1447 1448 1450 1451 1452 1453 1454 1455 1456 1457 1458 1458 1459 1459 1459 1460 1460 1460 1459 1459 1459 1458 1458 1457 1456 1456 1454 1453
1430 1431 1433 1434 1434 1435 1436 1437 1438 1438 1439 1440 1441 1442 1443 1444 1445 1447 1448 1449 1450 1451 1452 1453 1454 1455 1455 1456 1456 1456 1456 1456 1456 1456 1455 1455 1455 1454 1454 1453 1453 1452 1451 1450